Location: Lafig�re
(44.4503°N, 4.0357°E)
Time: 05:10:45
(UTC+00:00)

Transit 2A Rocket - Pass Details

Date: 18 June 2021
Orbit: 590 x 913 km, 66.7° (Epoch: 26 July)

Event Time Altitude Azimuth Distance (km) Brightness Sun altitude
Exits shadow 22:59:54 10° 90° (E) 1,926 7.0 -21.3°
Drops below altitude 10° 22:59:56 10° 90° (E) 1,929 7.0 -21.3°
Sets 23:03:57 0° 53° (NE) 2,875 8.3 -21.5°
